Regional Weather Roundup
Issued by NWS

Home | Current Version | Previous Version | Graphics & Text | Print | Product List | Glossary On
Versions: 1 2 3 4 5 6 7 8 9 10 11 12 13 14 15 16 17 18 19 20 21 22 23 24 25 26 27
000
ASUS45 KBOU 191707
RWRCO

WEATHER ROUNDUP FOR COLORADO
NATIONAL WEATHER SERVICE DENVER/BOULDER CO
1100 AM MDT WED JUL 19 2017

NOTE: "FAIR" INDICATES FEW OR NO CLOUDS BELOW 12000 FEET WITH NO
SIGNIFICANT WEATHER AND/OR OBSTRUCTIONS TO VISIBILITY.

COZ001>005-013-030-031-191800-
...NORTHWEST COLORADO...

CITY           SKY/WX    TMP DP  RH WIND       PRES   REMARKS
CRAIG          FAIR      84  47  27 N8        30.28F
HAYDEN         FAIR      81  46  30 N8        30.31F
MEEKER         FAIR      84  49  29 S10       30.29F
RABBIT EARS PA FAIR      64  45  48 NW6       30.66S
STEAMBOAT SPGS FAIR      80  49  33 CALM      30.34F
WALDEN         FAIR      75  45  33 S3        30.44F
$$

COZ006>008-011-191800-
...WEST CENTRAL VALLEYS...

CITY           SKY/WX    TMP DP  RH WIND       PRES   REMARKS
GRAND JUNCTION FAIR      87  51  28 SE13      30.18F
MONTROSE       FAIR      82  48  30 CALM      30.28F
EAGLE          SUNNY     79  48  34 NE6       30.34F
RIFLE          FAIR      85  50  29 NE5       30.24F
DELTA          FAIR      87  48  25 CALM      30.23F
NUCLA          NOT AVBL
$$

COZ017>023-064>068-191800-
...SOUTHWEST COLORADO...

CITY           SKY/WX    TMP DP  RH WIND       PRES   REMARKS
DURANGO        FAIR      79  48  33 S10       30.37S
CORTEZ         FAIR      84  52  33 E3        30.29S
PAGOSA SPRINGS FAIR      75  45  34 NW6       30.46F
TELLURIDE      FAIR      74  47  38 CALM      30.55F
WOLF CREEK PAS FAIR      55  45  67 SW5       30.82S
$$

COZ009-010-012-014-032>034-037-058>063-191800-
...CENTRAL COLORADO...

CITY           SKY/WX    TMP DP  RH WIND       PRES   REMARKS
ASPEN          FAIR      76  48  37 NW3       30.42S
BUENA VISTA    FAIR      75  46  36 CALM      30.44F
COPPER MTN     FAIR      64  41  42 NW10G18   30.77S
BERTHOUD PASS  FAIR      55  41  58 N5        30.81S
COTTONWOOD PAS FAIR      73  45  35 CALM      30.60S
GUNNISON       FAIR      72  52  49 CALM      30.45F
KREMMLING      FAIR      81  43  26 SE5       30.40F
LEADVILLE      FAIR      68  41  37 VRB5      30.55S
MONARCH PASS   FAIR      55  41  58 W15G28    30.88R
SALIDA         FAIR      83  45  27 SW9       30.46F
SUNLIGHT       FAIR      64  45  48 SW7       30.70S
WILKERSON PASS FAIR      59  43  55 SW6       30.74R
$$

COZ069>075-191800-
...SAN LUIS VALLEY/SANGRE DE CRISTO MOUNTAINS...

CITY           SKY/WX    TMP DP  RH WIND       PRES   REMARKS
ALAMOSA        FAIR      73  51  46 VRB5      30.44F
DEL NORTE      FAIR      71  51  49 CALM      30.48F
LA VETA PASS   NOT AVBL
SAGUACHE         N/A    N/A N/A N/A MISG        N/A
$$

COZ035-036-038>040-191800-
...NORTHERN COLORADO FRONT RANGE...

CITY           SKY/WX    TMP DP  RH WIND       PRES   REMARKS
DENVER INTL AP FAIR      90  49  24 VRB6      30.17S
DMNS CITY PARK   N/A     92  47  21 NE2       30.15F
AURORA         NOT AVBL
FRONT RANGE AP FAIR      91  46  21 CALM      30.18F
ERIE MUNI ARPT FAIR      87  49  26 CALM      30.15F
BOULDER MUN AP FAIR      86  50  28 CALM      30.15F
CENTENNIAL     FAIR      88  46  23 NW7       30.20F
BROOMFIELD     FAIR      86  46  25 CALM      30.19F
FORT COLLINS   FAIR      85  57  38 S5        30.15F
LONGMONT       FAIR      89  51  27 NE5       30.15F
$$

COZ041-046-047-076>085-087-088-191800-
...PIKES PEAK/PALMER DIVIDE AND SOUTHERN FOOTHILLS...

CITY           SKY/WX    TMP DP  RH WIND       PRES   REMARKS
COLO. SPRINGS  FAIR      82  58  43 SE8       30.27F
A. F. ACADEMY  NOT AVBL
SCHRIEVER AFB  NOT AVBL
CHEYENNE MTN   FAIR      78  55  44 SE6       30.27F
ELLICOTT       FAIR     N/A N/A N/A SW10      30.25F
FALCON           N/A     80  50  34 S15       30.33S
FORT CARSON    NOT AVBL
LIMON          FAIR      86  55  34 S17G24    30.19F
MONUMENT HILL  FAIR      81  46  30 CALM      30.33S
CANON CITY     SUNNY     90  55  31 W10       30.20F
WALSENBURG     FAIR      90  50  25 SW13      30.27S
TRINIDAD       FAIR      89  49  25 S7        30.26F
$$

COZ042>045-048>051-090-091-191800-
...NORTHEAST COLORADO...

CITY           SKY/WX    TMP DP  RH WIND       PRES   REMARKS
GREELEY ARPT   FAIR      83  61  47 NW5       30.13F
AKRON          FAIR      94  51  23 S12G18    30.12F
BURLINGTON     FAIR      91  62  37 SW14      30.14F
WRAY           NOT AVBL
YUMA           FAIR      84  63  48 SE7       30.11S
STERLING       FAIR      88  64  45 SW6       30.07F
HOLYOKE        FAIR      86  72  62 S7        30.08F
FORT MORGAN    FAIR      90  55  30 SE3       30.12F
$$

COZ086-089-092>099-191800-
...SOUTHEAST COLORADO...

CITY           SKY/WX    TMP DP  RH WIND       PRES   REMARKS
PUEBLO         FAIR      90  51  26 VRB7      30.15F
LA JUNTA       FAIR      91  59  33 SW7       30.15F
LAMAR          FAIR      94  57  28 SW5       30.10F
SPRINGFIELD      N/A     91  53  27 S15G22    30.18S
$$




USA.gov is the U.S. government's official web portal to all federal, state and local government web resources and services.